sat.trackr.live / text

‹ back to catalog

STARLINK-34680

NORAD 65356 · 2025-190F

PAYLOAD ACTIVE UNKNOWN

§ Identity

Operator
Country
US
Launch date
2025-08-28
Launch site
AFETR
Launch vehicle
Mass (kg)
RCS (m²)

Purposes: comms

External: N2YO · Heavens-Above · Gunter

§ Orbital elements

Epoch: 2026-09-20T22:50:52.036224Z

Period
93.85 min
Inclination
53.1593°
Eccentricity
0.0001183
Mean motion
15.34402659 rev/d
Perigee alt
461.9 km
Apogee alt
463.5 km
Semi-major
6,840.8 km
B*
5.1570e-4
RAAN
339.5834°
Arg perigee
87.2192°
Mean anomaly
272.8946°
Rev number
5,920

§ Raw data

STARLINK-346801 65356U 25190F   26263.95199116  .00017089  00000+0  51570-3 0  99972 65356  53.1593 339.5834 0001183  87.2192 272.8946 15.34402659 59203

JSON: /api/v1/satellites/65356 · /tle

For live sub-satellite position, see the globe view (requires WebGL).

§ Visibility from observer

Set your observer location to see the next 7 days of passes ≥ 10°. The values pass through the URL so the page stays shareable.

No JS? Fill the form by hand. The geolocation button needs JavaScript.